FENGYUN 1C DEB, 30756

Orbit data source: Space-Track

FENGYUN 1C DEB, 30756 is space debris in SSO originally from a launch on Mon, 10 May 1999 UTC launched from the Taiyaun Space Center, China (TSC). Fengyun 1C debris stems from the Chinese weather satellite Fengyun-1C, which was intentionally destroyed by a Chinese anti-satellite missile in 2007. This event dramatically increased the amount of space debris, with thousands of trackable fragments posing hazards to satellites and human spaceflight. The Fengyun 1C debris cloud has become a focal point in discussions about space sustainability and the need for international regulations to prevent the creation of new debris.

Loading next visibility...
Identifier
30756, 1999-025ATS
Orbit
SSO
Country
Flag of CNCN / PRC
Related business
Manufacturer
Unknown
Mission
Spacecraft
Bus & Motor
Unknown
Mass
Unknown
Launch date (UTC)
1999-05-10 (27 years ago)
Launch vehicle
Unknown
Launch site
Taiyaun Space Center, China (TSC)
Object type
Payload
Rocket body
Debris
Shape & HBR
Unknown shape, 0.1 m
Radar Cross Section
Medium (>0.1 m² and <1 m²)

Expand to show TLE details & history
Last TLE update: 1 day ago

TLE from 1 day ago
0 FENGYUN 1C DEB
1 30756U 99025ATS 26254.71867475  .00001497  00000-0  71216-3 0  9991
2 30756  98.9753 330.7558 0070847 257.5664 233.0672 14.19681065  2710
Epoch: 2026-09-11T17:14Z
TLE epoch observation values (Epoch: 2026-09-11T17:14:53.498Z)
Latitude
49.28158°
Longitude
-88.18737°
Altitude
865.088 km
Speed
7.409 km/s
True Right ascension
10h 45m 05s
True Declination
49° 06' 50"
Sunlit
Object was in daylight at epoch
Visualization orbit readout
Latitude
Unknown
Longitude
Unknown
Altitude
Unknown
Speed
Unknown
Apparent Right ascension
Unknown
Apparent Declination
Unknown
Sunlit
N/A
Visualization observer readout
Local Sidereal Time
10:38:10
Azimuth
Unknown
Elevation
Unknown
Doppler factor
Unknown
Orbital elements
Apogee altitude
874.625 km
Perigee altitude
772.581 km
Semi-major axis
7,201.74 km
Eccentricity
0.00708
Inclination
98.9753°
RAAN
330.7558°
Arg. of periapsis
257.5664°
True anomaly
232.42171°
Mean anomaly
233.0672°
Eccentric anomaly
232.74411°
Mean motion
3.5513 °/min
Orbital period
101.37 mins
BSTAR
0.00071216
Loading maneuver chart data...
Computing Atmospheric mass density...
Loading historical data...
Loading historical data...
Loading historical data...
Loading historical data...
Loading historical data...
Loading historical data...
Loading historical data...

Documentation

Showing up to 5 results
|